Виттенберге

Германия     52°59′57″N   11°45′17″E
темп.,
°C
ветер,
м/с
пор.,
м/с
влажн.,
%
обл.,
%
осадки,
мм/ч
давл.,
гПа
погр.,
м
26 февраля, пт
пт2601:00+9зсз259599 2.4 1027266
04:00+8сз3794100 3.7 1027357
07:00+7сз3883100 4.4 1028432
10:00+7зсз487496 0.0 1029484
13:00+9сз586198 0.0 10301037
16:00+9зсз586033 0.0 10291324
19:00+6зсз4108332 0.0 1031423
22:00+4зсз410884 0.0 1032476
27 февраля, сб
сб2701:00+3зсз411902 0.0 1034390
04:00+2зсз411941 0.0 1034393
07:00+3сз599432 0.0 1035483
10:00+4сз4690100 0.0 1036525
13:00+5сз3586100 0.1 1037480
16:00+6сз357790 0.0 1036644
19:00+5з128787 0.0 103722
22:00+3зюз239455 0.0 103779
28 февраля, вс
вс2801:00+2з249631 0.0 103795
04:00+1зсз25972 0.0 1035138
07:00+1зсз249915 0.0 103687
10:00+5зсз248640 0.0 1035278
13:00+10зсз246627 0.0 1035627
16:00+10сз24630 0.0 1034796
19:00+6зсз22820 0.0 103522
22:00+4зсз22910 0.0 103529
1 марта, пн
пн101:00+3зсз12940 0.0 103622
04:00+2з22950 0.0 103523
07:00+1зсз12970 0.0 103522
10:00+6з118111 0.0 1035244
13:00+10юз22626 0.0 1035526
16:00+10зюз12610 0.0 1034532
19:00+6ссв11800 0.0 103422
22:00+4вюв12850 0.0 103422
2 марта, вт
вт201:00+3юв12880 0.0 103322
04:00+3вюв12910 0.0 103222
07:00+2вюв12920 0.0 103222
10:00+7вюв23760 0.0 1032268
13:00+11вюв34620 0.0 1031568
16:00+11вюв24610 0.0 1029755
19:00+7вюв22790 0.0 102922
22:00+5юв12870 0.0 102922